THORAD AGENA D DEB

Satellite information

Favourite Embed

Satellite Type and Status

DEBRISIN ORBIT

Key statistics

Satellite THORAD AGENA D DEB at a glance.

Uptime

20339

Days in orbit

Revolutions

≈ 14.2

Per day

Orbit

SSO

Sun Synchronous Orbit

Inclination

100.0

Latest

Satellite identification and parameters

Extended collection of information and parameters for THORAD AGENA D DEB.

Object identification

Identified? True

Debris? True

Object name: THORAD AGENA D DEB

International designator: 1970-025AN

Object number (NORAD): 4654

Object ID (CCSDS): 4654

Country: UNITED STATES OF AMERICA (US)

Current information (Y/N): Y

RCS size: SMALL

Orbital parameters

Period: 101.717 minutes

Inclination: 100.0167 deg

SMA: 7218.096 km

Apoapsis: 860.032 km

Periapsis: 819.891 km

RAAN: 132.5005 deg

Eccentricy: 0.00278055

Argument of periapsis: 222.1811 deg

Mean anomaly: 137.7219 deg

Mean motion: 14.15691904 rev/day

Mean motion (dot): 0.00003832 rev/day2

B* drag term: 0.0019735751 1/REarth

Two-line elements (TLE)

Creation date: Dec. 14, 2025, 3:07 a.m.

Reference frame: TEME

Reference center: EARTH

Epoch: Dec. 13, 2025, 3:17 p.m. UTC

TLE line 0: 0 THORAD AGENA D DEB

TLE line 1: 1 04654U 70025AN 25347.63732089 .00003832 00000-0 19736-2 0 9996

TLE line 2: 2 04654 100.0167 132.5005 0027805 222.1811 137.7219 14.15691904813676

Live tracking on map

Real-time ground track for satellite THORAD AGENA D DEB.

In-orbit conjunctions

A list of the most updated potential collisions computed for object THORAD AGENA D DEB.

Target Orbit TCA Probability of collision Miss distance Type
SEDSAT 1 LEO 2025-08-02 09:32:24 0.001199848 834.0 (m) PAYLOAD
SL-16 DEB LEO 2024-11-12 14:05:36 0.0001972543 119.0 (m) DEBRIS

Associated space launch

Meteorological research and development satellite

THORAD AGENA D DEB was lifted into orbit during the mission ‘Thorad SLV-2G Agena D | Nimbus 4’, on board a Thorad SLV-2G Agena D space rocket.

The launch took place on April 8, 1970, 8:17 a.m. from Space Launch Complex 2E.

For more information about the launch, click the button.

Launch to space Thorad SLV-2G Agena D | Nimbus 4
Thorad SLV-2G Agena D | Nimbus 4

Agency: N/A

Status: Launch Successful

Launch date: April 8, 1970, 8:17 a.m. UTC

Rocket: Thorad SLV-2G Agena D

Launch pad: Space Launch Complex 2E

Location: Vandenberg SFB, CA, USA

...

Latest news about this satellite

There are no fresh news available about this satellite. Check back as we update our databases every day.


Newsletter sign-up

Weekly statistics, charts and insights to help you stay on top of the space industry.